GW2742 Weather Reports


time (UTC)temp
F
wind
direction
speed
knots
gust
knots
rain 1hr
in
rain 24hr
in
rain mn
in
humidity
%
barometer
mb
20260507130526 46 195 0.9 2.6 0.00 0.04 0.04 90 1013.7
20260507130041 46 193 0.9 2.6 0.00 0.04 0.04 90 1013.7
20260507125523 46 0 0.0 5.2 0.00 0.04 0.04 90 1013.7
20260507125026 46 328 0.9 5.2 0.00 0.04 0.04 90 1013.7
20260507124540 46 359 2.6 4.3 0.00 0.04 0.04 90 1013.7
20260507124023 46 0 0.0 0.0 0.00 0.04 0.04 90 1013.3
20260507123524 46 0 0.0 0.0 0.01 0.04 0.04 90 1013.1
20260507123043 46 0 0.0 1.7 0.01 0.04 0.04 89 1013.0
20260507122525 46 0 0.0 4.3 0.01 0.04 0.04 90 1012.8
20260507122026 46 138 0.0 4.3 0.01 0.04 0.04 89 1012.7
20260507121538 46 169 1.7 4.3 0.01 0.04 0.04 89 1012.5
20260507121024 46 163 0.9 4.3 0.01 0.04 0.04 90 1012.6
20260507120523 46 226 1.7 4.3 0.01 0.04 0.04 90 1012.7
20260507120043 46 200 1.7 4.3 0.01 0.04 0.04 89 1012.6
20260507115523 46 210 1.7 3.5 0.01 0.04 0.04 89 1012.5
20260507115023 46 176 1.7 3.5 0.01 0.04 0.04 89 1012.4
20260507114545 46 245 0.9 2.6 0.01 0.04 0.04 89 1012.6
20260507114023 46 0 0.9 2.6 0.01 0.04 0.04 89 1012.6
20260507113523 46 188 0.9 2.6 0.00 0.03 0.03 89 1012.7
20260507113038 46 81 0.9 2.6 0.00 0.03 0.03 88 1013.1
20260507112524 46 0 0.0 3.5 0.00 0.03 0.03 88 1012.8
20260507112024 46 191 0.9 3.5 0.00 0.03 0.03 88 1012.7
20260507111545 46 223 1.7 3.5 0.01 0.03 0.03 88 1012.8
20260507111023 46 172 0.9 5.2 0.01 0.03 0.03 88 1012.7
20260507110523 46 0 1.7 5.2 0.02 0.03 0.03 88 1012.8
20260507110044 46 212 0.0 3.5 0.02 0.03 0.03 88 1012.9
20260507105525 46 0 0.9 4.3 0.03 0.03 0.03 88 1012.8
20260507105023 46 216 1.7 4.3 0.03 0.03 0.03 87 1012.8
20260507104544 47 222 0.0 3.5 0.03 0.03 0.03 87 1012.5
20260507104023 47 224 1.7 3.5 0.03 0.03 0.03 86 1012.8
20260507103526 47 0 0.0 3.5 0.03 0.03 0.03 85 1012.8
20260507103040 47 250 1.7 3.5 0.03 0.03 0.03 85 1013.3
20260507102525 47 203 0.9 6.1 0.03 0.03 0.03 85 1013.1
20260507102026 47 134 1.7 6.1 0.03 0.03 0.03 84 1013.0
20260507101543 47 68 2.6 6.1 0.02 0.02 0.02 84 1012.9
20260507101027 48 76 1.7 4.3 0.02 0.02 0.02 83 1013.0
20260507100525 48 50 1.7 2.6 0.01 0.01 0.01 81 1013.0
20260507100037 48 84 0.9 3.5 0.00 0.00 0.00 80 1013.0
20260507095524 48 45 0.9 7.8 0.00 0.00 0.00 79 1013.1
20260507095029 48 342 2.6 8.7 0.00 0.00 0.00 78 1013.3
20260507094541 49 300 3.5 8.7 0.00 0.00 0.00 78 1013.2
20260507094027 49 360 3.5 8.7 0.00 0.00 0.00 76 1013.2
20260507093523 49 359 3.5 12.2 0.00 0.00 0.00 75 1013.1
20260507093043 50 343 6.1 13.9 0.00 0.00 0.00 73 1013.3
20260507092523 50 343 7.0 15.6 0.00 0.00 0.00 72 1013.4
20260507092023 50 352 7.0 15.6 0.00 0.00 0.00 71 1013.3
20260507091540 50 350 7.0 13.9 0.00 0.00 0.00 69 1013.2
20260507091023 50 312 4.3 12.2 0.00 0.00 0.00 70 1013.0
20260507090525 50 333 4.3 12.2 0.00 0.00 0.00 70 1012.9
20260507090038 51 311 5.2 13.0 0.00 0.00 0.00 69 1012.9
20260507085527 51 316 6.1 13.0 0.00 0.00 0.00 68 1012.8
20260507085024 50 296 5.2 13.0 0.00 0.00 0.00 68 1012.6
20260507084541 49 315 2.6 8.7 0.00 0.00 0.00 65 1012.5
20260507084028 49 341 2.6 5.2 0.00 0.00 0.00 56 1012.7
20260507083526 48 358 0.9 5.2 0.00 0.00 0.00 52 1012.7
20260507083039 49 313 1.7 5.2 0.00 0.00 0.00 55 1013.0
20260507082524 49 335 0.9 7.8 0.00 0.00 0.00 54 1013.0
20260507082023 48 0 2.6 7.8 0.00 0.00 0.00 51 1012.9
20260507081538 48 349 2.6 7.0 0.00 0.00 0.00 50 1012.8
20260507081025 48 344 1.7 7.0 0.00 0.00 0.00 55 1012.7
20260507080526 48 146 0.9 2.6 0.00 0.00 0.00 52 1012.4
20260507080040 48 319 0.9 1.7 0.00 0.00 0.00 44 1012.5
20260507075525 48 319 0.9 3.5 0.00 0.00 0.00 42 1012.3
20260507075025 48 319 0.9 3.5 0.00 0.00 0.00 42 1012.3
20260507074539 49 351 1.7 3.5 0.00 0.00 0.00 40 1012.1
20260507074023 50 0 0.0 2.6 0.00 0.00 0.00 38 1011.7
20260507073525 50 61 0.9 3.5 0.00 0.00 0.00 36 1011.6
20260507073039 50 0 0.9 4.3 0.00 0.00 0.00 34 1011.8
20260507072523 50 98 1.7 6.1 0.00 0.00 0.00 34 1011.8
20260507072022 49 157 1.7 6.1 0.00 0.00 0.00 38 1011.8
20260507071536 49 169 1.7 6.1 0.00 0.00 0.00 36 1011.9
20260507071025 49 0 0.0 1.7 0.00 0.00 0.00 39 1011.9
20260507070523 49 0 0.0 2.6 0.00 0.00 0.00 39 1012.1
20260507070037 49 281 0.9 3.5 0.00 0.00 0.00 38 1012.1
20260507065523 50 334 1.7 3.5 0.00 0.00 0.00 38 1012.0
20260507065024 51 336 1.7 3.5 0.00 0.00 0.00 38 1011.9
20260507064550 51 0 0.0 1.7 0.00 0.00 0.00 34 1011.6
20260507064023 52 202 0.0 5.2 0.00 0.00 0.00 34 1011.5
20260507063523 52 201 0.9 5.2 0.00 0.00 0.00 32 1011.3
20260507063037 52 210 0.9 5.2 0.00 0.00 0.00 32 1011.3
20260507062523 52 215 1.7 5.2 0.00 0.00 0.00 32 1011.2
20260507062026 52 162 1.7 4.3 0.00 0.00 0.00 32 1011.1
20260507061538 52 174 0.9 7.0 0.00 0.00 0.00 32 1011.1
20260507061023 52 149 2.6 7.0 0.00 0.00 0.00 32 1011.2
20260507060525 52 196 1.7 11.3 0.00 0.00 0.00 32 1011.2
20260507060037 52 214 2.6 11.3 0.00 0.00 0.00 31 1011.5
20260507055524 52 117 4.3 11.3 0.00 0.00 0.00 30 1011.4
20260507055024 52 169 2.6 6.1 0.00 0.00 0.00 31 1011.5
20260507054540 51 183 2.6 6.1 0.00 0.00 0.00 32 1011.6
20260507054027 52 156 2.6 6.1 0.00 0.00 0.00 32 1011.9
20260507053523 51 134 3.5 6.1 0.00 0.00 0.00 30 1012.1
20260507053044 51 154 2.6 4.3 0.00 0.00 0.00 32 1012.5
20260507052523 50 139 1.7 4.3 0.00 0.00 0.00 32 1012.8
20260507052023 50 341 1.7 3.5 0.00 0.00 0.00 37 1012.8
20260507051538 50 305 0.0 4.3 0.00 0.00 0.00 35 1012.7
20260507051022 50 0 0.9 6.1 0.00 0.00 0.00 35 1012.6
20260507050523 50 25 2.6 6.1 0.00 0.00 0.00 36 1012.1
20260507050040 50 25 2.6 4.3 0.00 0.00 0.00 36 1011.9
20260507045527 51 24 0.9 4.3 0.00 0.00 0.00 34 1011.9
20260507045027 51 53 1.7 4.3 0.00 0.00 0.00 32 1011.9
20260507044537 52 31 1.7 4.3 0.00 0.00 0.00 30 1012.0
20260507044026 52 68 1.7 4.3 0.00 0.00 0.00 29 1012.0
20260507043524 52 87 0.9 3.5 0.00 0.00 0.00 29 1011.9
20260507043038 52 79 0.9 3.5 0.00 0.00 0.00 31 1012.0
20260507042525 52 144 0.9 3.5 0.00 0.00 0.00 29 1011.9
20260507042025 52 138 0.9 4.3 0.00 0.00 0.00 29 1011.8
20260507041549 52 114 1.7 4.3 0.00 0.00 0.00 29 1011.8
20260507041023 52 232 0.0 1.7 0.00 0.00 0.00 29 1012.0
20260507040527 52 231 0.9 3.5 0.00 0.00 0.00 29 1012.2
20260507040039 52 231 0.9 3.5 0.00 0.00 0.00 29 1011.9
20260507035524 52 193 0.9 2.6 0.00 0.00 0.00 29 1011.8
20260507035023 52 130 0.9 3.5 0.00 0.00 0.00 29 1012.0
20260507034538 52 119 0.9 3.5 0.00 0.00 0.00 28 1012.2
20260507034023 52 115 1.7 4.3 0.00 0.00 0.00 30 1012.0
20260507033531 52 172 1.7 4.3 0.00 0.00 0.00 29 1012.1
20260507033037 52 146 0.9 3.5 0.00 0.00 0.00 30 1012.1
20260507032526 52 34 0.0 4.3 0.00 0.00 0.00 31 1012.3
20260507032023 52 0 0.0 4.3 0.00 0.00 0.00 29 1012.1
20260507031543 52 41 1.7 4.3 0.00 0.00 0.00 29 1011.9
20260507031023 52 235 0.0 3.5 0.00 0.00 0.00 29 1011.8
20260507030526 52 232 0.9 3.5 0.00 0.00 0.00 29 1011.7
20260507030038 52 0 0.0 2.6 0.00 0.00 0.00 29 1011.7
20260507025523 52 0 0.0 2.6 0.00 0.00 0.00 29 1011.7
20260507025026 53 0 0.0 2.6 0.00 0.00 0.00 28 1011.6
20260507024542 53 82 0.0 2.6 0.00 0.00 0.00 27 1011.6
20260507024024 54 0 0.0 2.6 0.00 0.00 0.00 29 1011.6
20260507023525 54 136 0.0 3.5 0.00 0.00 0.00 27 1011.6
20260507023037 54 135 0.9 3.5 0.00 0.00 0.00 27 1011.6
20260507022523 54 179 0.9 2.6 0.00 0.00 0.00 28 1011.8
20260507022024 54 122 0.0 3.5 0.00 0.00 0.00 27 1011.6
20260507021537 55 0 1.7 4.3 0.00 0.00 0.00 27 1011.5
20260507021029 55 0 0.9 5.2 0.00 0.00 0.00 26 1011.5
20260507020526 55 144 1.7 5.2 0.00 0.00 0.00 26 1011.4
20260507020045 55 131 1.7 7.0 0.00 0.00 0.00 27 1011.6
20260507015522 56 124 2.6 7.0 0.00 0.00 0.00 26 1011.5
20260507015029 56 97 2.6 9.6 0.00 0.00 0.00 26 1011.3
20260507014554 56 139 4.3 9.6 0.00 0.00 0.00 25 1011.4
20260507014029 56 146 3.5 7.8 0.00 0.00 0.00 26 1011.3
20260507013522 57 159 2.6 9.6 0.00 0.00 0.00 25 1011.5
20260507013045 57 153 4.3 9.6 0.00 0.00 0.00 24 1011.4
20260507012524 58 158 2.6 9.6 0.00 0.00 0.00 25 1011.3
20260507012025 58 103 2.6 9.6 0.00 0.00 0.00 25 1011.3
20260507011540 58 89 4.3 9.6 0.00 0.00 0.00 24 1011.4
20260507011023 59 97 4.3 8.7 0.00 0.00 0.00 24 1011.4
20260507010522 59 115 3.5 7.8 0.00 0.00 0.00 24 1011.4
20260507010036 59 120 4.3 8.7 0.00 0.00 0.00 24 1011.5
20260507005523 59 170 4.3 8.7 0.00 0.00 0.00 24 1011.6
20260507005023 59 97 3.5 7.8 0.00 0.00 0.00 24 1011.6
20260507004535 60 142 3.5 8.7 0.00 0.00 0.00 24 1011.6
20260507004023 60 114 1.7 8.7 0.00 0.00 0.00 25 1011.6
20260507003523 60 151 4.3 8.7 0.00 0.00 0.00 24 1011.6
20260507003038 60 184 2.6 7.8 0.00 0.00 0.00 25 1011.7
20260507002523 60 159 5.2 7.8 0.00 0.00 0.00 24 1011.6
20260507002023 60 180 3.5 10.4 0.00 0.00 0.00 26 1011.6
20260507001544 60 103 4.3 10.4 0.00 0.00 0.00 23 1011.8
20260507001022 60 174 3.5 9.6 0.00 0.00 0.00 25 1011.8
20260507000526 60 122 4.3 9.6 0.00 0.00 0.00 24 1011.8
20260507000036 60 149 5.2 8.7 0.00 0.00 0.00 24 1011.8
20260506235523 60 146 2.6 8.7 0.00 0.00 0.00 25 1011.8
20260506235022 60 190 5.2 8.7 0.00 0.00 0.00 24 1012.0
20260506234536 60 139 2.6 8.7 0.00 0.00 0.00 26 1012.0
20260506234022 60 143 4.3 11.3 0.00 0.00 0.00 25 1012.0
20260506233523 60 199 4.3 11.3 0.00 0.00 0.00 26 1012.1
20260506233043 60 100 2.6 7.8 0.00 0.00 0.00 26 1012.1
20260506232522 59 114 2.6 7.8 0.00 0.00 0.00 23 1012.1
20260506232023 59 124 3.5 9.6 0.00 0.00 0.00 26 1012.1
20260506231540 59 190 2.6 9.6 0.00 0.00 0.00 26 1012.1
20260506231024 59 91 4.3 10.4 0.00 0.00 0.00 24 1012.2
20260506230522 59 183 4.3 10.4 0.00 0.00 0.00 26 1012.3
20260506230037 59 105 5.2 10.4 0.00 0.00 0.00 24 1012.4
20260506225526 59 143 4.3 10.4 0.00 0.00 0.00 24 1012.3
20260506225029 59 133 3.5 10.4 0.00 0.00 0.00 24 1012.3
20260506224540 59 0 4.3 9.6 0.00 0.00 0.00 25 1012.3
20260506224026 59 103 4.3 9.6 0.00 0.00 0.00 25 1012.5
20260506223526 59 101 4.3 10.4 0.00 0.00 0.00 25 1012.5
20260506223100 59 94 4.3 10.4 0.00 0.00 0.00 25 1012.5
20260506222526 59 122 4.3 10.4 0.00 0.00 0.00 26 1012.6
20260506222027 59 57 3.5 9.6 0.00 0.00 0.00 29 1012.8
20260506221543 59 139 5.2 9.6 0.00 0.00 0.00 25 1012.8
20260506221026 59 153 3.5 8.7 0.00 0.00 0.00 24 1013.0
20260506220527 59 124 3.5 8.7 0.00 0.00 0.00 24 1013.1
20260506220039 59 63 3.5 10.4 0.00 0.00 0.00 24 1013.1
20260506215526 59 8 4.3 11.3 0.00 0.00 0.00 23 1013.1
20260506215026 59 85 4.3 11.3 0.00 0.00 0.00 25 1013.2
20260506214540 58 80 3.5 7.0 0.00 0.00 0.00 27 1013.3
20260506214027 58 144 2.6 7.0 0.00 0.00 0.00 23 1013.3
20260506213526 58 243 0.9 7.0 0.00 0.00 0.00 24 1013.4
20260506213037 58 123 3.5 7.0 0.00 0.00 0.00 25 1013.5
20260506212526 58 103 0.9 7.8 0.00 0.00 0.00 23 1013.6
20260506212026 58 195 3.5 7.8 0.00 0.00 0.00 23 1013.8
20260506211544 57 282 1.7 6.1 0.00 0.00 0.00 25 1013.9
20260506211027 57 174 1.7 6.1 0.00 0.00 0.00 25 1013.9
20260506210527 57 4 2.6 6.1 0.00 0.00 0.00 24 1014.2
20260506210041 57 72 1.7 5.2 0.00 0.00 0.00 27 1014.1
20260506205525 57 237 1.7 4.3 0.00 0.00 0.00 26 1014.2
20260506205026 57 41 0.9 5.2 0.00 0.00 0.00 24 1014.3
20260506204538 57 148 1.7 5.2 0.00 0.00 0.00 25 1014.4
20260506204026 56 169 1.7 11.3 0.00 0.00 0.00 29 1014.3
20260506203526 56 162 3.5 11.3 0.00 0.00 0.00 25 1014.4
20260506203044 56 89 3.5 11.3 0.00 0.00 0.00 26 1014.6
20260506202527 55 83 1.7 7.0 0.00 0.00 0.00 26 1014.7
20260506202027 55 153 2.6 6.1 0.00 0.00 0.00 27 1014.8
20260506201537 55 236 2.6 6.1 0.00 0.00 0.00 26 1014.8
20260506201026 55 42 2.6 6.1 0.00 0.00 0.00 24 1014.9
20260506200526 55 272 3.5 6.1 0.00 0.00 0.00 25 1015.0
20260506200049 55 182 1.7 5.2 0.00 0.00 0.00 36 1015.0
20260506195526 54 1 0.9 6.1 0.00 0.00 0.00 29 1015.1
20260506195028 54 75 2.6 6.1 0.00 0.00 0.00 32 1015.2
20260506194539 54 228 1.7 7.0 0.00 0.00 0.00 35 1015.4
20260506194051 53 243 2.6 8.7 0.00 0.00 0.00 27 1015.4
20260506193526 53 155 2.6 8.7 0.00 0.00 0.00 26 1015.5
20260506193036 53 220 5.2 8.7 0.00 0.00 0.00 27 1015.6
20260506192526 54 206 4.3 7.0 0.00 0.00 0.00 29 1015.7
20260506192026 53 153 2.6 7.0 0.00 0.00 0.00 28 1015.7
20260506191536 53 315 1.7 7.8 0.00 0.00 0.00 27 1015.8
20260506191026 53 190 3.5 8.7 0.00 0.00 0.00 29 1015.8
20260506190528 53 198 4.3 8.7 0.00 0.00 0.00 32 1016.1
20260506190036 52 221 0.9 10.4 0.00 0.00 0.00 30 1016.1
20260506185526 53 150 5.2 10.4 0.00 0.00 0.00 29 1016.3
20260506185027 53 49 1.7 7.0 0.00 0.00 0.00 30 1016.3
20260506184540 53 184 3.5 8.7 0.00 0.00 0.00 30 1016.4
20260506184027 52 238 3.5 10.4 0.00 0.00 0.00 36 1016.5
20260506183527 51 200 5.2 10.4 0.00 0.00 0.00 32 1016.4
20260506183037 51 119 5.2 8.7 0.00 0.00 0.00 34 1016.5
20260506182526 51 122 3.5 7.8 0.00 0.00 0.00 33 1016.7
20260506182025 51 166 3.5 10.4 0.00 0.00 0.00 36 1016.7
20260506181538 51 138 4.3 10.4 0.00 0.00 0.00 35 1016.9
20260506181027 50 144 4.3 10.4 0.00 0.00 0.00 36 1016.8
20260506180529 50 208 6.1 10.4 0.00 0.00 0.00 35 1016.9
20260506180049 50 172 1.7 8.7 0.00 0.00 0.00 34 1017.1
20260506175529 50 0 4.3 8.7 0.00 0.00 0.00 32 1017.3
20260506175027 50 184 2.6 8.7 0.00 0.00 0.00 39 1017.3
20260506174536 49 255 0.9 8.7 0.00 0.00 0.00 36 1017.3
20260506174026 49 135 3.5 8.7 0.00 0.00 0.00 36 1017.6
20260506173525 48 146 0.9 7.8 0.00 0.00 0.00 39 1017.6
20260506173041 48 76 3.5 10.4 0.00 0.00 0.00 36 1017.7
20260506172526 48 88 2.6 10.4 0.00 0.00 0.00 37 1017.8
20260506172030 48 165 5.2 11.3 0.00 0.00 0.00 40 1017.9
20260506171549 47 265 4.3 11.3 0.00 0.00 0.00 40 1017.9
20260506171026 47 264 3.5 7.8 0.00 0.00 0.00 39 1018.0
20260506170526 47 166 1.7 7.0 0.00 0.00 0.00 38 1018.1
20260506170038 47 192 1.7 7.8 0.00 0.00 0.00 38 1018.1
20260506165526 47 172 1.7 7.8 0.00 0.00 0.00 41 1018.2
20260506165027 46 127 3.5 7.8 0.00 0.00 0.00 39 1018.1
20260506164538 46 245 2.6 7.8 0.00 0.00 0.00 41 1018.2
20260506164026 46 51 2.6 5.2 0.00 0.00 0.00 43 1018.0
20260506163522 46 309 2.6 7.8 0.00 0.00 0.00 41 1018.1
20260506163048 46 125 3.5 9.6 0.00 0.00 0.00 42 1018.2
20260506162522 46 198 4.3 9.6 0.00 0.00 0.00 43 1018.2
20260506162022 47 57 2.6 7.8 0.00 0.00 0.00 43 1018.2
20260506161548 46 181 1.7 7.8 0.00 0.00 0.00 44 1018.3
20260506161022 46 148 0.9 6.1 0.00 0.00 0.00 45 1018.4
20260506160529 45 98 2.6 6.1 0.00 0.00 0.00 44 1018.5
20260506160040 45 127 2.6 7.8 0.00 0.00 0.00 47 1018.6
20260506155522 44 91 3.5 7.8 0.00 0.00 0.00 49 1018.7
20260506155022 44 65 2.6 6.1 0.00 0.00 0.00 49 1018.7
20260506154538 44 79 0.9 5.2 0.00 0.00 0.00 50 1018.8
20260506154025 43 0 1.7 5.2 0.00 0.00 0.00 51 1018.9
20260506153523 43 199 1.7 6.1 0.00 0.00 0.00 52 1018.9
20260506153045 43 167 2.6 6.1 0.00 0.00 0.00 53 1019.0
20260506152522 43 75 1.7 3.5 0.00 0.00 0.00 52 1019.1
20260506152025 42 67 0.9 4.3 0.00 0.00 0.00 53 1019.2
20260506151537 41 0 0.9 4.3 0.00 0.00 0.00 53 1019.3
20260506151022 41 92 0.9 4.3 0.00 0.00 0.00 57 1019.3
20260506150522 40 136 0.9 4.3 0.00 0.00 0.00 56 1019.2
20260506150037 40 193 0.9 4.3 0.00 0.00 0.00 55 1019.3
20260506145522 40 141 0.9 3.5 0.00 0.00 0.00 59 1019.2
20260506145025 39 231 0.9 2.6 0.00 0.00 0.00 60 1019.3
20260506144540 38 158 0.0 3.5 0.00 0.00 0.00 60 1019.3
20260506144022 38 158 0.9 3.5 0.00 0.00 0.00 61 1019.5
20260506143525 38 171 0.9 2.6 0.00 0.00 0.00 64 1019.6
20260506143037 37 0 0.9 2.6 0.00 0.00 0.00 61 1019.5
20260506142522 37 220 0.9 2.6 0.00 0.00 0.00 62 1019.6
20260506142022 37 0 0.0 1.7 0.00 0.00 0.00 64 1019.7
20260506141538 36 0 0.0 1.7 0.00 0.00 0.00 67 1019.7
20260506141023 35 0 0.0 1.7 0.00 0.00 0.00 68 1019.8
20260506140523 34 0 0.0 1.7 0.00 0.00 0.00 71 1019.8
20260506140043 33 0 0.0 1.7 0.00 0.00 0.00 70 1019.7
20260506135530 32 0 0.0 2.6 0.00 0.00 0.00 72 1019.7
20260506135027 31 213 0.0 2.6 0.00 0.00 0.00 72 1019.7
20260506134606 31 213 0.9 2.6 0.00 0.00 0.00 73 1019.8
20260506134022 30 213 0.9 2.6 0.00 0.00 0.00 73 1019.8
20260506133521 30 213 0.9 2.6 0.00 0.00 0.00 73 1019.7
20260506133038 29 0 0.0 1.7 0.00 0.00 0.00 75 1019.7
20260506132523 29 0 0.0 2.6 0.00 0.00 0.00 76 1019.8
20260506132023 28 188 0.9 2.6 0.00 0.00 0.00 76 1019.7
20260506131546 28 188 0.9 2.6 0.00 0.00 0.00 77 1019.7
20260506131027 27 188 0.9 2.6 0.00 0.00 0.00 79 1019.6